START_TIME,STEP,MOV.,P11,t_acc.,P23,t_acc.,P27,t_acc.,A4,t_acc.
1979-02-28 15:00:12.540 ,0,0,0.,4.8,0.,4.8,0.,4.8,0.,4.8
1979-02-28 15:00:17.340 ,0,0,0.,4.8,0.,4.8,0.,4.8,0.,4.8
1979-02-28 15:00:22.140 ,0,0,0.,4.8,0.,4.8,0.,4.8,1.,4.8
1979-02-28 15:00:26.940 ,0,0,0.,4.8,0.,4.8,1.,4.8,0.,4.8
1979-02-28 15:00:31.740 ,0,0,1.,4.8,0.,4.8,0.,4.8,0.,4.8
1979-02-28 15:00:36.540 ,1,0,0.,4.8,0.,4.8,0.,4.8,0.,4.8
1979-02-28 15:00:41.340 ,1,0,0.,4.8,0.,4.8,0.,4.8,0.,4.8
1979-02-28 15:00:46.140 ,1,0,0.,4.8,0.,4.8,0.,4.8,0.,4.8
1979-02-28 15:00:50.940 ,1,0,0.,4.8,0.,4.8,0.,4.8,0.,4.8
1979-02-28 15:00:55.740 ,1,0,0.,4.8,0.,4.8,0.,4.8,0.,4.8
1979-02-28 15:01:00.540 ,0,0,0.,4.8,0.,4.8,0.,4.8,0.,4.8
1979-02-28 15:01:05.340 ,0,0,0.,4.8,2.,4.8,1.,4.8,0.,4.8
1979-02-28 15:01:10.140 ,0,0,0.,4.8,0.,4.8,0.,4.8,0.,4.8
1979-02-28 15:01:14.940 ,0,0,0.,4.8,0.,4.8,0.,4.8,0.,4.8
1979-02-28 15:01:19.740 ,0,0,0.,4.8,0.,4.8,0.,4.8,0.,4.8
1979-02-28 15:01:24.540 ,0,0,0.,4.8,0.,4.8,0.,4.8,0.,4.8
1979-02-28 15:01:29.340 ,0,0,1.,4.8,0.,4.8,0.,4.8,0.,4.8
1979-02-28 15:01:34.140 ,0,0,2.,4.8,0.,4.8,1.,4.8,0.,4.8
1979-02-28 15:01:38.940 ,0,0,0.,4.8,0.,4.8,0.,4.8,0.,4.8
1979-02-28 15:01:43.740 ,0,0,0.,4.8,0.,4.8,0.,4.8,0.,4.8
1979-02-28 15:01:48.540 ,1,0,0.,4.8,0.,4.8,0.,4.8,0.,4.8
1979-02-28 15:01:53.340 ,1,0,0.,4.8,0.,4.8,0.,4.8,0.,4.8
1979-02-28 15:01:58.140 ,1,0,0.,4.8,0.,4.8,0.,4.8,0.,4.8
1979-02-28 15:02:02.940 ,1,0,0.,4.8,1.,4.8,0.,4.8,0.,4.8
1979-02-28 15:02:07.740 ,1,0,0.,4.8,0.,4.8,0.,4.8,0.,4.8
1979-02-28 15:02:12.540 ,2,0,0.,4.8,0.,4.8,0.,4.8,0.,4.8
1979-02-28 15:02:17.340 ,2,0,0.,4.8,0.,4.8,0.,4.8,0.,4.8
1979-02-28 15:02:22.140 ,2,0,0.,4.8,0.,4.8,0.,4.8,0.,4.8
1979-02-28 15:02:26.940 ,2,0,1.,4.8,0.,4.8,0.,4.8,0.,4.8
1979-02-28 15:02:31.740 ,2,0,1.,4.8,0.,4.8,0.,4.8,0.,4.8
1979-02-28 15:02:36.540 ,3,0,1.,4.8,0.,4.8,0.,4.8,0.,4.8
1979-02-28 15:02:41.340 ,3,0,0.,4.8,0.,4.8,0.,4.8,0.,4.8
1979-02-28 15:02:46.140 ,3,0,0.,4.8,0.,4.8,0.,4.8,0.,4.8
1979-02-28 15:02:50.940 ,3,0,0.,4.8,0.,4.8,1.,4.8,0.,4.8
1979-02-28 15:02:55.740 ,3,0,0.,4.8,0.,4.8,1.,4.8,0.,4.8
1979-02-28 15:03:00.540 ,4,0,0.,4.8,0.,4.8,0.,4.8,0.,4.8
1979-02-28 15:03:05.340 ,4,0,0.,4.8,1.,4.8,0.,4.8,0.,4.8
1979-02-28 15:03:10.140 ,4,0,0.,4.8,0.,4.8,0.,4.8,0.,4.8
1979-02-28 15:03:14.940 ,4,0,1.,4.8,0.,4.8,0.,4.8,0.,4.8
1979-02-28 15:03:19.740 ,4,0,1.,4.8,0.,4.8,0.,4.8,0.,4.8
1979-02-28 15:03:24.540 ,5,0,0.,4.8,0.,4.8,0.,4.8,0.,4.8
1979-02-28 15:03:29.340 ,5,0,0.,4.8,0.,4.8,0.,4.8,0.,4.8
1979-02-28 15:03:34.140 ,5,0,0.,4.8,0.,4.8,1.,4.8,0.,4.8
1979-02-28 15:03:38.940 ,5,0,0.,4.8,0.,4.8,0.,4.8,0.,4.8
1979-02-28 15:03:43.740 ,5,0,0.,4.8,0.,4.8,0.,4.8,0.,4.8
1979-02-28 15:03:48.540 ,6,0,0.,4.8,0.,4.8,0.,4.8,0.,4.8
1979-02-28 15:03:53.340 ,6,0,0.,4.8,0.,4.8,1.,4.8,0.,4.8
1979-02-28 15:03:58.140 ,6,0,0.,4.8,0.,4.8,0.,4.8,0.,4.8
1979-02-28 15:04:02.940 ,6,0,0.,4.8,0.,4.8,0.,4.8,0.,4.8
1979-02-28 15:04:07.740 ,6,0,0.,4.8,0.,4.8,0.,4.8,0.,4.8
1979-02-28 15:04:12.540 ,7,0,1.,4.8,0.,4.8,0.,4.8,0.,4.8
1979-02-28 15:04:17.340 ,7,0,0.,4.8,0.,4.8,0.,4.8,0.,4.8
1979-02-28 15:04:22.140 ,7,0,0.,4.8,0.,4.8,0.,4.8,0.,4.8
1979-02-28 15:04:26.940 ,7,0,1.,4.8,0.,4.8,0.,4.8,0.,4.8
1979-02-28 15:04:31.740 ,7,0,0.,4.8,0.,4.8,0.,4.8,0.,4.8
1979-02-28 15:04:36.540 ,7,0,0.,4.8,0.,4.8,0.,4.8,0.,4.8
1979-02-28 15:04:41.340 ,7,0,0.,4.8,0.,4.8,0.,4.8,0.,4.8
1979-02-28 15:04:46.140 ,7,0,0.,4.8,0.,4.8,0.,4.8,0.,4.8
1979-02-28 15:04:50.940 ,7,0,0.,4.8,1.,4.8,0.,4.8,0.,4.8
1979-02-28 15:04:55.740 ,7,0,0.,4.8,1.,4.8,1.,4.8,0.,4.8
1979-02-28 15:05:00.540 ,6,0,0.,4.8,0.,4.8,0.,4.8,0.,4.8
1979-02-28 15:05:05.340 ,6,0,0.,4.8,0.,4.8,1.,4.8,0.,4.8
1979-02-28 15:05:10.140 ,6,0,0.,4.8,0.,4.8,0.,4.8,0.,4.8
1979-02-28 15:05:14.940 ,6,0,0.,4.8,0.,4.8,0.,4.8,0.,4.8
1979-02-28 15:05:19.740 ,6,0,2.,4.8,0.,4.8,0.,4.8,0.,4.8
1979-02-28 15:05:24.540 ,5,0,0.,4.8,0.,4.8,0.,4.8,0.,4.8
1979-02-28 15:05:29.340 ,5,0,1.,4.8,0.,4.8,0.,4.8,0.,4.8
1979-02-28 15:05:34.140 ,5,0,0.,4.8,0.,4.8,0.,4.8,0.,4.8
1979-02-28 15:05:38.940 ,5,0,0.,4.8,0.,4.8,0.,4.8,0.,4.8
1979-02-28 15:05:43.740 ,5,0,1.,4.8,0.,4.8,0.,4.8,0.,4.8
1979-02-28 15:05:48.540 ,4,0,1.,4.8,0.,4.8,0.,4.8,0.,4.8
1979-02-28 15:05:53.340 ,4,0,1.,4.8,1.,4.8,0.,4.8,0.,4.8
1979-02-28 15:05:58.140 ,4,0,0.,4.8,0.,4.8,1.,4.8,0.,4.8
1979-02-28 15:06:02.940 ,4,0,0.,4.8,0.,4.8,0.,4.8,0.,4.8
1979-02-28 15:06:07.740 ,4,0,0.,4.8,0.,4.8,0.,4.8,0.,4.8
1979-02-28 15:06:12.540 ,3,0,0.,4.8,0.,4.8,0.,4.8,0.,4.8
1979-02-28 15:06:17.340 ,3,0,0.,4.8,0.,4.8,1.,4.8,0.,4.8
1979-02-28 15:06:22.140 ,3,0,0.,4.8,0.,4.8,0.,4.8,0.,4.8
1979-02-28 15:06:26.940 ,3,0,0.,4.8,0.,4.8,1.,4.8,0.,4.8
1979-02-28 15:06:31.740 ,3,0,1.,4.8,0.,4.8,1.,4.8,0.,4.8
1979-02-28 15:06:36.540 ,2,0,0.,4.8,0.,4.8,0.,4.8,0.,4.8
1979-02-28 15:06:41.340 ,2,0,2.,4.8,0.,4.8,0.,4.8,0.,4.8
1979-02-28 15:06:46.140 ,2,0,0.,4.8,1.,4.8,0.,4.8,0.,4.8
1979-02-28 15:06:50.940 ,2,0,0.,4.8,0.,4.8,0.,4.8,0.,4.8
1979-02-28 15:06:55.740 ,2,0,1.,4.8,0.,4.8,1.,4.8,0.,4.8
1979-02-28 15:07:00.540 ,1,0,0.,4.8,0.,4.8,0.,4.8,0.,4.8
1979-02-28 15:07:05.340 ,1,0,0.,4.8,0.,4.8,1.,4.8,0.,4.8
1979-02-28 15:07:10.140 ,1,0,1.,4.8,0.,4.8,0.,4.8,0.,4.8
1979-02-28 15:07:14.940 ,1,0,1.,4.8,0.,4.8,0.,4.8,0.,4.8
1979-02-28 15:07:19.740 ,1,0,0.,4.8,0.,4.8,1.,4.8,0.,4.8
1979-02-28 15:07:24.540 ,0,0,0.,4.8,0.,4.8,0.,4.8,0.,4.8
1979-02-28 15:07:29.340 ,0,0,0.,4.8,0.,4.8,0.,4.8,0.,4.8
1979-02-28 15:07:34.140 ,0,0,0.,4.8,0.,4.8,0.,4.8,0.,4.8
1979-02-28 15:07:38.940 ,0,0,2.,4.8,0.,4.8,0.,4.8,0.,4.8
1979-02-28 15:07:43.740 ,0,0,1.,4.8,1.,4.8,0.,4.8,0.,4.8
1979-02-28 15:07:48.540 ,0,0,0.,4.8,0.,4.8,0.,4.8,0.,4.8
1979-02-28 15:07:53.340 ,0,0,0.,4.8,0.,4.8,0.,4.8,0.,4.8
1979-02-28 15:07:58.140 ,0,0,0.,4.8,0.,4.8,0.,4.8,0.,4.8
1979-02-28 15:08:02.940 ,0,0,0.,4.8,0.,4.8,0.,4.8,0.,4.8
1979-02-28 15:08:07.740 ,0,0,0.,4.8,0.,4.8,1.,4.8,0.,4.8
1979-02-28 15:08:12.540 ,1,0,0.,4.8,0.,4.8,0.,4.8,0.,4.8
1979-02-28 15:08:17.340 ,1,0,0.,4.8,0.,4.8,0.,4.8,0.,4.8
1979-02-28 15:08:22.140 ,1,0,0.,4.8,0.,4.8,2.,4.8,0.,4.8
1979-02-28 15:08:26.940 ,1,0,0.,4.8,0.,4.8,0.,4.8,0.,4.8
1979-02-28 15:08:31.740 ,1,0,0.,4.8,0.,4.8,0.,4.8,0.,4.8
1979-02-28 15:08:36.540 ,2,0,0.,4.8,0.,4.8,0.,4.8,0.,4.8
1979-02-28 15:08:41.340 ,2,0,1.,4.8,0.,4.8,0.,4.8,0.,4.8
1979-02-28 15:08:46.140 ,2,0,0.,4.8,0.,4.8,0.,4.8,0.,4.8
1979-02-28 15:08:50.940 ,2,0,0.,4.8,0.,4.8,1.,4.8,0.,4.8
1979-02-28 15:08:55.740 ,2,0,1.,4.8,0.,4.8,0.,4.8,0.,4.8
1979-02-28 15:09:00.540 ,3,0,0.,4.8,0.,4.8,0.,4.8,0.,4.8
1979-02-28 15:09:05.340 ,3,0,0.,4.8,0.,4.8,0.,4.8,0.,4.8
1979-02-28 15:09:10.140 ,3,0,0.,4.8,0.,4.8,0.,4.8,0.,4.8
1979-02-28 15:09:14.940 ,3,0,0.,4.8,0.,4.8,1.,4.8,0.,4.8
1979-02-28 15:09:19.740 ,3,0,1.,4.8,0.,4.8,1.,4.8,0.,4.8
1979-02-28 15:09:24.540 ,4,0,1.,4.8,0.,4.8,0.,4.8,0.,4.8
1979-02-28 15:09:29.340 ,4,0,0.,4.8,0.,4.8,1.,4.8,0.,4.8
1979-02-28 15:09:34.140 ,4,0,1.,4.8,0.,4.8,0.,4.8,0.,4.8
1979-02-28 15:09:38.940 ,4,0,0.,4.8,0.,4.8,0.,4.8,0.,4.8
1979-02-28 15:09:43.740 ,4,0,0.,4.8,0.,4.8,0.,4.8,0.,4.8
1979-02-28 15:09:48.540 ,5,0,0.,4.8,0.,4.8,0.,4.8,0.,4.8
1979-02-28 15:09:53.340 ,5,0,0.,4.8,0.,4.8,1.,4.8,0.,4.8
1979-02-28 15:09:58.140 ,5,0,0.,4.8,0.,4.8,1.,4.8,0.,4.8
1979-02-28 15:10:02.940 ,5,0,0.,4.8,0.,4.8,0.,4.8,0.,4.8
1979-02-28 15:10:07.740 ,5,0,1.,4.8,0.,4.8,0.,4.8,0.,4.8
1979-02-28 15:10:12.540 ,6,0,0.,4.8,0.,4.8,0.,4.8,0.,4.8
1979-02-28 15:10:17.340 ,6,0,0.,4.8,0.,4.8,0.,4.8,0.,4.8
1979-02-28 15:10:22.140 ,6,0,0.,4.8,0.,4.8,0.,4.8,0.,4.8
1979-02-28 15:10:26.940 ,6,0,0.,4.8,0.,4.8,0.,4.8,0.,4.8
1979-02-28 15:10:31.740 ,6,0,0.,4.8,0.,4.8,0.,4.8,0.,4.8
1979-02-28 15:10:36.540 ,7,0,0.,4.8,0.,4.8,0.,4.8,1.,4.8
1979-02-28 15:10:41.340 ,7,0,0.,4.8,0.,4.8,0.,4.8,0.,4.8
1979-02-28 15:10:46.140 ,7,0,1.,4.8,0.,4.8,0.,4.8,0.,4.8
1979-02-28 15:10:50.940 ,7,0,0.,4.8,0.,4.8,2.,4.8,0.,4.8
1979-02-28 15:10:55.740 ,7,0,0.,4.8,0.,4.8,0.,4.8,0.,4.8
1979-02-28 15:11:00.540 ,7,0,0.,4.8,0.,4.8,0.,4.8,0.,4.8
1979-02-28 15:11:05.340 ,7,0,0.,4.8,0.,4.8,0.,4.8,0.,4.8
1979-02-28 15:11:10.140 ,7,0,0.,4.8,0.,4.8,1.,4.8,0.,4.8
1979-02-28 15:11:14.940 ,7,0,0.,4.8,0.,4.8,2.,4.8,0.,4.8
1979-02-28 15:11:19.740 ,7,0,1.,4.8,0.,4.8,0.,4.8,0.,4.8
1979-02-28 15:11:24.540 ,6,0,0.,4.8,0.,4.8,0.,4.8,0.,4.8
1979-02-28 15:11:29.340 ,6,0,0.,4.8,0.,4.8,0.,4.8,0.,4.8
1979-02-28 15:11:34.140 ,6,0,1.,4.8,0.,4.8,1.,4.8,0.,4.8
1979-02-28 15:11:38.940 ,6,0,0.,4.8,0.,4.8,0.,4.8,0.,4.8
1979-02-28 15:11:43.740 ,6,0,0.,4.8,0.,4.8,0.,4.8,0.,4.8
1979-02-28 15:11:48.540 ,5,0,0.,4.8,0.,4.8,1.,4.8,0.,4.8
1979-02-28 15:11:53.340 ,5,0,1.,4.8,0.,4.8,0.,4.8,0.,4.8
1979-02-28 15:11:58.140 ,5,0,0.,4.8,0.,4.8,0.,4.8,0.,4.8
1979-02-28 15:12:02.940 ,5,0,0.,4.8,1.,4.8,0.,4.8,0.,4.8
1979-02-28 15:12:07.740 ,5,0,0.,4.8,0.,4.8,0.,4.8,0.,4.8
1979-02-28 15:12:12.540 ,4,0,0.,4.8,1.,4.8,1.,4.8,0.,4.8
1979-02-28 15:12:17.340 ,4,0,0.,4.8,0.,4.8,0.,4.8,0.,4.8
1979-02-28 15:12:22.140 ,4,0,0.,4.8,0.,4.8,1.,4.8,0.,4.8
1979-02-28 15:12:26.940 ,4,0,1.,4.8,0.,4.8,0.,4.8,0.,4.8
1979-02-28 15:12:31.740 ,4,0,1.,4.8,0.,4.8,1.,4.8,0.,4.8
1979-02-28 15:12:36.540 ,3,0,0.,4.8,0.,4.8,0.,4.8,0.,4.8
1979-02-28 15:12:41.340 ,3,0,0.,4.8,0.,4.8,0.,4.8,1.,4.8
1979-02-28 15:12:46.140 ,3,0,0.,4.8,0.,4.8,0.,4.8,0.,4.8
1979-02-28 15:12:50.940 ,3,0,0.,4.8,0.,4.8,0.,4.8,0.,4.8
1979-02-28 15:12:55.740 ,3,0,1.,4.8,0.,4.8,0.,4.8,0.,4.8
1979-02-28 15:13:00.540 ,2,0,0.,4.8,1.,4.8,0.,4.8,0.,4.8
1979-02-28 15:13:05.340 ,2,0,0.,4.8,0.,4.8,1.,4.8,0.,4.8
1979-02-28 15:13:10.140 ,2,0,0.,4.8,0.,4.8,0.,4.8,0.,4.8
1979-02-28 15:13:14.940 ,2,0,2.,4.8,1.,4.8,1.,4.8,0.,4.8
1979-02-28 15:13:19.740 ,2,0,1.,4.8,0.,4.8,0.,4.8,0.,4.8
1979-02-28 15:13:24.540 ,1,0,0.,4.8,0.,4.8,0.,4.8,0.,4.8
1979-02-28 15:13:29.340 ,1,0,,0,,0,,0,,0
1979-02-28 15:13:34.140 ,1,0,0.,4.8,0.,4.8,0.,4.8,0.,4.8
1979-02-28 15:13:38.940 ,1,0,0.,4.8,0.,4.8,1.,4.8,0.,4.8
1979-02-28 15:13:43.740 ,1,0,0.,4.8,1.,4.8,0.,4.8,0.,4.8
1979-02-28 15:13:48.540 ,0,0,0.,4.8,0.,4.8,0.,4.8,0.,4.8
1979-02-28 15:13:53.340 ,0,0,0.,4.8,0.,4.8,0.,4.8,1.,4.8
1979-02-28 15:13:58.140 ,0,0,1.,4.8,0.,4.8,0.,4.8,0.,4.8
1979-02-28 15:14:02.940 ,0,0,1.,4.8,1.,4.8,1.,4.8,0.,4.8
1979-02-28 15:14:07.740 ,0,0,0.,4.8,1.,4.8,0.,4.8,0.,4.8
1979-02-28 15:14:12.540 ,0,0,0.,4.8,0.,4.8,0.,4.8,0.,4.8
1979-02-28 15:14:17.340 ,0,0,1.,4.8,0.,4.8,0.,4.8,1.,4.8
1979-02-28 15:14:22.140 ,0,0,0.,4.8,1.,4.8,1.,4.8,0.,4.8
1979-02-28 15:14:26.940 ,0,0,0.,4.8,0.,4.8,1.,4.8,1.,4.8
1979-02-28 15:14:31.740 ,0,0,2.,4.8,0.,4.8,1.,4.8,0.,4.8
1979-02-28 15:14:36.540 ,1,0,0.,4.8,0.,4.8,2.,4.8,0.,4.8
1979-02-28 15:14:41.340 ,1,0,1.,4.8,0.,4.8,0.,4.8,0.,4.8
1979-02-28 15:14:46.140 ,1,0,0.,4.8,0.,4.8,1.,4.8,0.,4.8
1979-02-28 15:14:50.940 ,1,0,0.,4.8,0.,4.8,0.,4.8,0.,4.8
1979-02-28 15:14:55.740 ,1,0,0.,4.8,0.,4.8,0.,4.8,0.,4.8
1979-02-28 15:15:00.540 ,2,0,1.,4.8,0.,4.8,0.,4.8,0.,4.8
1979-02-28 15:15:05.340 ,2,0,0.,4.8,0.,4.8,0.,4.8,0.,4.8
1979-02-28 15:15:10.140 ,2,0,0.,4.8,0.,4.8,0.,4.8,0.,4.8
1979-02-28 15:15:14.940 ,2,0,0.,4.8,0.,4.8,0.,4.8,0.,4.8
1979-02-28 15:15:19.740 ,2,0,0.,4.8,0.,4.8,0.,4.8,0.,4.8
1979-02-28 15:15:24.540 ,3,0,1.,4.8,0.,4.8,1.,4.8,0.,4.8
1979-02-28 15:15:29.340 ,3,0,0.,4.8,0.,4.8,0.,4.8,0.,4.8
1979-02-28 15:15:34.140 ,3,0,0.,4.8,0.,4.8,0.,4.8,0.,4.8
1979-02-28 15:15:38.940 ,3,0,0.,4.8,0.,4.8,0.,4.8,1.,4.8
1979-02-28 15:15:43.740 ,3,0,0.,4.8,0.,4.8,0.,4.8,0.,4.8
1979-02-28 15:15:48.540 ,4,0,1.,4.8,0.,4.8,0.,4.8,0.,4.8
1979-02-28 15:15:53.340 ,4,0,0.,4.8,0.,4.8,1.,4.8,0.,4.8
1979-02-28 15:15:58.140 ,4,0,1.,4.8,0.,4.8,0.,4.8,0.,4.8
1979-02-28 15:16:02.940 ,4,0,0.,4.8,0.,4.8,0.,4.8,0.,4.8
1979-02-28 15:16:07.740 ,4,0,0.,4.8,0.,4.8,0.,4.8,0.,4.8
1979-02-28 15:16:12.540 ,5,0,0.,4.8,0.,4.8,0.,4.8,0.,4.8
1979-02-28 15:16:17.340 ,5,0,0.,4.8,0.,4.8,0.,4.8,0.,4.8
1979-02-28 15:16:22.140 ,5,0,0.,4.8,0.,4.8,0.,4.8,0.,4.8
1979-02-28 15:16:26.940 ,5,0,0.,4.8,0.,4.8,0.,4.8,0.,4.8
1979-02-28 15:16:31.740 ,5,0,0.,4.8,0.,4.8,0.,4.8,0.,4.8
1979-02-28 15:16:36.540 ,6,0,1.,4.8,0.,4.8,0.,4.8,0.,4.8
1979-02-28 15:16:41.340 ,6,0,0.,4.8,0.,4.8,1.,4.8,0.,4.8
1979-02-28 15:16:46.140 ,6,0,1.,4.8,0.,4.8,0.,4.8,0.,4.8
1979-02-28 15:16:50.940 ,6,0,0.,4.8,0.,4.8,0.,4.8,0.,4.8
1979-02-28 15:16:55.740 ,6,0,0.,4.8,0.,4.8,1.,4.8,0.,4.8
1979-02-28 15:17:00.540 ,7,0,1.,4.8,0.,4.8,0.,4.8,0.,4.8
1979-02-28 15:17:05.340 ,7,0,1.,4.8,0.,4.8,0.,4.8,0.,4.8
1979-02-28 15:17:10.140 ,7,0,0.,4.8,0.,4.8,0.,4.8,0.,4.8
1979-02-28 15:17:14.940 ,7,0,1.,4.8,0.,4.8,1.,4.8,0.,4.8
1979-02-28 15:17:19.740 ,7,0,0.,4.8,0.,4.8,0.,4.8,0.,4.8
1979-02-28 15:17:24.540 ,7,0,0.,4.8,0.,4.8,0.,4.8,0.,4.8
1979-02-28 15:17:29.340 ,7,0,1.,4.8,0.,4.8,0.,4.8,0.,4.8
1979-02-28 15:17:34.140 ,7,0,0.,4.8,0.,4.8,0.,4.8,0.,4.8
1979-02-28 15:17:38.940 ,7,0,0.,4.8,0.,4.8,0.,4.8,0.,4.8
1979-02-28 15:17:43.740 ,7,0,0.,4.8,0.,4.8,1.,4.8,0.,4.8
1979-02-28 15:17:48.540 ,6,0,0.,4.8,0.,4.8,0.,4.8,0.,4.8
1979-02-28 15:17:53.340 ,6,0,0.,4.8,0.,4.8,0.,4.8,0.,4.8
1979-02-28 15:17:58.140 ,6,0,1.,4.8,0.,4.8,0.,4.8,0.,4.8
1979-02-28 15:18:02.940 ,6,0,0.,4.8,0.,4.8,0.,4.8,0.,4.8
1979-02-28 15:18:07.740 ,6,0,0.,4.8,0.,4.8,0.,4.8,0.,4.8
1979-02-28 15:18:12.540 ,5,0,1.,4.8,0.,4.8,0.,4.8,0.,4.8
1979-02-28 15:18:17.340 ,5,0,0.,4.8,0.,4.8,0.,4.8,0.,4.8
1979-02-28 15:18:22.140 ,5,0,0.,4.8,0.,4.8,1.,4.8,0.,4.8
1979-02-28 15:18:26.940 ,5,0,0.,4.8,0.,4.8,1.,4.8,0.,4.8
1979-02-28 15:18:31.740 ,5,0,0.,4.8,0.,4.8,0.,4.8,0.,4.8
1979-02-28 15:18:36.540 ,4,0,0.,4.8,0.,4.8,0.,4.8,0.,4.8
1979-02-28 15:18:41.340 ,4,0,0.,4.8,0.,4.8,1.,4.8,0.,4.8
1979-02-28 15:18:46.140 ,4,0,0.,4.8,0.,4.8,0.,4.8,0.,4.8
1979-02-28 15:18:50.940 ,4,0,0.,4.8,0.,4.8,0.,4.8,0.,4.8
1979-02-28 15:18:55.740 ,4,0,0.,4.8,0.,4.8,0.,4.8,0.,4.8
1979-02-28 15:19:00.540 ,3,0,0.,4.8,0.,4.8,1.,4.8,0.,4.8
1979-02-28 15:19:05.340 ,3,0,0.,4.8,0.,4.8,0.,4.8,0.,4.8
1979-02-28 15:19:10.140 ,3,0,1.,4.8,0.,4.8,1.,4.8,0.,4.8
1979-02-28 15:19:14.940 ,3,0,0.,4.8,0.,4.8,0.,4.8,0.,4.8
1979-02-28 15:19:19.740 ,3,0,0.,4.8,0.,4.8,1.,4.8,0.,4.8
1979-02-28 15:19:24.540 ,2,0,0.,4.8,0.,4.8,1.,4.8,0.,4.8
1979-02-28 15:19:29.340 ,2,0,1.,4.8,0.,4.8,2.,4.8,0.,4.8
1979-02-28 15:19:34.140 ,2,0,0.,4.8,0.,4.8,1.,4.8,0.,4.8
1979-02-28 15:19:38.940 ,2,0,0.,4.8,0.,4.8,1.,4.8,0.,4.8
1979-02-28 15:19:43.740 ,2,0,0.,4.8,0.,4.8,0.,4.8,0.,4.8
1979-02-28 15:19:48.540 ,1,0,0.,4.8,0.,4.8,0.,4.8,0.,4.8
1979-02-28 15:19:53.340 ,1,0,1.,4.8,0.,4.8,0.,4.8,0.,4.8
1979-02-28 15:19:58.140 ,1,0,0.,4.8,0.,4.8,0.,4.8,0.,4.8
1979-02-28 15:20:02.940 ,1,0,1.,4.8,0.,4.8,0.,4.8,0.,4.8
1979-02-28 15:20:07.740 ,1,0,0.,4.8,0.,4.8,0.,4.8,0.,4.8
1979-02-28 15:20:12.540 ,0,0,0.,4.8,0.,4.8,0.,4.8,0.,4.8
1979-02-28 15:20:17.340 ,0,0,0.,4.8,0.,4.8,0.,4.8,0.,4.8
1979-02-28 15:20:22.140 ,0,0,0.,4.8,0.,4.8,0.,4.8,0.,4.8
1979-02-28 15:20:26.940 ,0,0,0.,4.8,0.,4.8,0.,4.8,0.,4.8
1979-02-28 15:20:31.740 ,0,0,0.,4.8,0.,4.8,1.,4.8,0.,4.8
1979-02-28 15:20:36.540 ,0,0,1.,4.8,0.,4.8,0.,4.8,0.,4.8
1979-02-28 15:20:41.340 ,0,0,0.,4.8,0.,4.8,0.,4.8,0.,4.8
1979-02-28 15:20:46.140 ,0,0,0.,4.8,0.,4.8,0.,4.8,0.,4.8
1979-02-28 15:20:50.940 ,0,0,0.,4.8,0.,4.8,0.,4.8,0.,4.8
1979-02-28 15:20:55.740 ,0,0,0.,4.8,0.,4.8,0.,4.8,0.,4.8
1979-02-28 15:21:00.540 ,1,0,1.,4.8,0.,4.8,0.,4.8,0.,4.8
1979-02-28 15:21:05.340 ,1,0,0.,4.8,0.,4.8,0.,4.8,0.,4.8
1979-02-28 15:21:10.140 ,1,0,0.,4.8,0.,4.8,0.,4.8,0.,4.8
1979-02-28 15:21:14.940 ,1,0,0.,4.8,0.,4.8,0.,4.8,0.,4.8
1979-02-28 15:21:19.740 ,1,0,0.,4.8,1.,4.8,0.,4.8,0.,4.8
1979-02-28 15:21:24.540 ,2,0,0.,4.8,0.,4.8,0.,4.8,0.,4.8
1979-02-28 15:21:29.340 ,2,0,1.,4.8,0.,4.8,1.,4.8,0.,4.8
1979-02-28 15:21:34.140 ,2,0,0.,4.8,1.,4.8,0.,4.8,0.,4.8
1979-02-28 15:21:38.940 ,2,0,0.,4.8,0.,4.8,0.,4.8,0.,4.8
1979-02-28 15:21:43.740 ,2,0,0.,4.8,0.,4.8,0.,4.8,0.,4.8
1979-02-28 15:21:48.540 ,3,0,1.,4.8,0.,4.8,0.,4.8,0.,4.8
1979-02-28 15:21:53.340 ,3,0,0.,4.8,1.,4.8,0.,4.8,0.,4.8
1979-02-28 15:21:58.140 ,3,0,1.,4.8,0.,4.8,1.,4.8,0.,4.8
1979-02-28 15:22:02.940 ,3,0,0.,4.8,1.,4.8,0.,4.8,0.,4.8
1979-02-28 15:22:07.740 ,3,0,0.,4.8,0.,4.8,0.,4.8,0.,4.8
1979-02-28 15:22:12.540 ,4,0,0.,4.8,0.,4.8,0.,4.8,0.,4.8
1979-02-28 15:22:17.340 ,4,0,0.,4.8,0.,4.8,0.,4.8,0.,4.8
1979-02-28 15:22:22.140 ,4,0,0.,4.8,0.,4.8,0.,4.8,0.,4.8
1979-02-28 15:22:26.940 ,4,0,0.,4.8,1.,4.8,1.,4.8,0.,4.8
1979-02-28 15:22:31.740 ,4,0,0.,4.8,0.,4.8,0.,4.8,0.,4.8
1979-02-28 15:22:36.540 ,5,0,0.,4.8,0.,4.8,0.,4.8,0.,4.8
1979-02-28 15:22:41.340 ,5,0,0.,4.8,0.,4.8,0.,4.8,0.,4.8
1979-02-28 15:22:46.140 ,5,0,0.,4.8,0.,4.8,2.,4.8,0.,4.8
1979-02-28 15:22:50.940 ,5,0,0.,4.8,0.,4.8,0.,4.8,0.,4.8
1979-02-28 15:22:55.740 ,5,0,0.,4.8,0.,4.8,0.,4.8,0.,4.8
1979-02-28 15:23:00.540 ,6,0,0.,4.8,0.,4.8,0.,4.8,0.,4.8
1979-02-28 15:23:05.340 ,6,0,0.,4.8,0.,4.8,0.,4.8,0.,4.8
1979-02-28 15:23:10.140 ,6,0,1.,4.8,0.,4.8,0.,4.8,0.,4.8
1979-02-28 15:23:14.940 ,6,0,0.,4.8,0.,4.8,1.,4.8,0.,4.8
1979-02-28 15:23:19.740 ,6,0,1.,4.8,0.,4.8,0.,4.8,0.,4.8
1979-02-28 15:23:24.540 ,7,0,2.,4.8,0.,4.8,0.,4.8,0.,4.8
1979-02-28 15:23:29.340 ,7,0,0.,4.8,0.,4.8,1.,4.8,0.,4.8
1979-02-28 15:23:34.140 ,7,0,0.,4.8,1.,4.8,0.,4.8,0.,4.8
1979-02-28 15:23:38.940 ,7,0,0.,4.8,0.,4.8,0.,4.8,0.,4.8
1979-02-28 15:23:43.740 ,7,0,1.,4.8,0.,4.8,0.,4.8,0.,4.8
1979-02-28 15:23:48.540 ,7,0,0.,4.8,0.,4.8,0.,4.8,0.,4.8
1979-02-28 15:23:53.340 ,7,0,0.,4.8,0.,4.8,0.,4.8,0.,4.8
1979-02-28 15:23:58.140 ,7,0,0.,4.8,0.,4.8,0.,4.8,0.,4.8
1979-02-28 15:24:02.940 ,7,0,0.,4.8,0.,4.8,0.,4.8,0.,4.8
1979-02-28 15:24:07.740 ,7,0,0.,4.8,0.,4.8,0.,4.8,0.,4.8
1979-02-28 15:24:12.540 ,6,0,0.,4.8,0.,4.8,0.,4.8,0.,4.8
1979-02-28 15:24:17.340 ,6,0,0.,4.8,0.,4.8,0.,4.8,0.,4.8
1979-02-28 15:24:22.140 ,6,0,0.,4.8,0.,4.8,0.,4.8,0.,4.8
1979-02-28 15:24:26.940 ,6,0,0.,4.8,0.,4.8,0.,4.8,0.,4.8
1979-02-28 15:24:31.740 ,6,0,0.,4.8,0.,4.8,0.,4.8,0.,4.8
1979-02-28 15:24:36.540 ,5,0,0.,4.8,0.,4.8,0.,4.8,0.,4.8
1979-02-28 15:24:41.340 ,5,0,0.,4.8,0.,4.8,0.,4.8,0.,4.8
1979-02-28 15:24:46.140 ,5,0,0.,4.8,0.,4.8,0.,4.8,0.,4.8
1979-02-28 15:24:50.940 ,5,0,0.,4.8,0.,4.8,0.,4.8,0.,4.8
1979-02-28 15:24:55.740 ,5,0,0.,4.8,1.,4.8,0.,4.8,0.,4.8
1979-02-28 15:25:00.540 ,4,0,0.,4.8,1.,4.8,0.,4.8,0.,4.8
1979-02-28 15:25:05.340 ,4,0,0.,4.8,0.,4.8,1.,4.8,0.,4.8
1979-02-28 15:25:10.140 ,4,0,0.,4.8,0.,4.8,0.,4.8,0.,4.8
1979-02-28 15:25:14.940 ,4,0,0.,4.8,0.,4.8,0.,4.8,0.,4.8
1979-02-28 15:25:19.740 ,4,0,0.,4.8,0.,4.8,0.,4.8,0.,4.8
1979-02-28 15:25:24.540 ,3,0,0.,4.8,0.,4.8,0.,4.8,0.,4.8
1979-02-28 15:25:29.340 ,3,0,0.,4.8,0.,4.8,1.,4.8,0.,4.8
1979-02-28 15:25:34.140 ,3,0,1.,4.8,0.,4.8,0.,4.8,0.,4.8
1979-02-28 15:25:38.940 ,3,0,1.,4.8,0.,4.8,0.,4.8,0.,4.8
1979-02-28 15:25:43.740 ,3,0,2.,4.8,0.,4.8,0.,4.8,0.,4.8
1979-02-28 15:25:48.540 ,2,0,0.,4.8,0.,4.8,0.,4.8,0.,4.8
1979-02-28 15:25:53.340 ,2,0,0.,4.8,0.,4.8,0.,4.8,0.,4.8
1979-02-28 15:25:58.140 ,2,0,0.,4.8,0.,4.8,0.,4.8,0.,4.8
1979-02-28 15:26:02.940 ,2,0,0.,4.8,0.,4.8,0.,4.8,0.,4.8
1979-02-28 15:26:07.740 ,2,0,0.,4.8,0.,4.8,0.,4.8,0.,4.8
1979-02-28 15:26:12.540 ,1,0,0.,4.8,0.,4.8,0.,4.8,0.,4.8
1979-02-28 15:26:17.340 ,1,0,1.,4.8,0.,4.8,1.,4.8,0.,4.8
1979-02-28 15:26:22.140 ,1,0,0.,4.8,0.,4.8,0.,4.8,0.,4.8
1979-02-28 15:26:26.940 ,1,0,0.,4.8,1.,4.8,0.,4.8,0.,4.8
1979-02-28 15:26:31.740 ,1,0,0.,4.8,0.,4.8,0.,4.8,0.,4.8
1979-02-28 15:26:36.540 ,0,0,0.,4.8,0.,4.8,0.,4.8,0.,4.8
1979-02-28 15:26:41.340 ,0,0,1.,4.8,0.,4.8,0.,4.8,0.,4.8
1979-02-28 15:26:46.140 ,0,0,1.,4.8,0.,4.8,1.,4.8,0.,4.8
1979-02-28 15:26:50.940 ,0,0,1.,4.8,0.,4.8,0.,4.8,0.,4.8
1979-02-28 15:26:55.740 ,0,0,1.,4.8,0.,4.8,1.,4.8,0.,4.8
1979-02-28 15:27:00.540 ,0,0,0.,4.8,0.,4.8,0.,4.8,0.,4.8
1979-02-28 15:27:05.340 ,0,0,1.,4.8,0.,4.8,0.,4.8,0.,4.8
1979-02-28 15:27:10.140 ,0,0,0.,4.8,0.,4.8,0.,4.8,0.,4.8
1979-02-28 15:27:14.940 ,0,0,0.,4.8,0.,4.8,0.,4.8,0.,4.8
1979-02-28 15:27:19.740 ,0,0,3.,4.8,0.,4.8,0.,4.8,0.,4.8
1979-02-28 15:27:24.540 ,1,0,0.,4.8,1.,4.8,1.,4.8,0.,4.8
1979-02-28 15:27:29.340 ,1,0,0.,4.8,0.,4.8,0.,4.8,0.,4.8
1979-02-28 15:27:34.140 ,1,0,0.,4.8,0.,4.8,0.,4.8,0.,4.8
1979-02-28 15:27:38.940 ,1,0,0.,4.8,0.,4.8,0.,4.8,0.,4.8
1979-02-28 15:27:43.740 ,1,0,0.,4.8,0.,4.8,0.,4.8,0.,4.8
1979-02-28 15:27:48.540 ,2,0,0.,4.8,0.,4.8,0.,4.8,0.,4.8
1979-02-28 15:27:53.340 ,2,0,0.,4.8,0.,4.8,0.,4.8,0.,4.8
1979-02-28 15:27:58.140 ,2,0,0.,4.8,0.,4.8,0.,4.8,1.,4.8
1979-02-28 15:28:02.940 ,2,0,0.,4.8,0.,4.8,0.,4.8,0.,4.8
1979-02-28 15:28:07.740 ,2,0,0.,4.8,0.,4.8,1.,4.8,0.,4.8
1979-02-28 15:28:12.540 ,3,0,0.,4.8,0.,4.8,0.,4.8,0.,4.8
1979-02-28 15:28:17.340 ,3,0,0.,4.8,0.,4.8,1.,4.8,0.,4.8
1979-02-28 15:28:22.140 ,3,0,0.,4.8,0.,4.8,0.,4.8,0.,4.8
1979-02-28 15:28:26.940 ,3,0,1.,4.8,0.,4.8,0.,4.8,0.,4.8
1979-02-28 15:28:31.740 ,3,0,0.,4.8,0.,4.8,0.,4.8,0.,4.8
1979-02-28 15:28:36.540 ,4,0,0.,4.8,0.,4.8,0.,4.8,0.,4.8
1979-02-28 15:28:41.340 ,4,0,0.,4.8,0.,4.8,0.,4.8,0.,4.8
1979-02-28 15:28:46.140 ,4,0,0.,4.8,0.,4.8,0.,4.8,0.,4.8
1979-02-28 15:28:50.940 ,4,0,0.,4.8,0.,4.8,1.,4.8,0.,4.8
1979-02-28 15:28:55.740 ,4,0,0.,4.8,0.,4.8,1.,4.8,0.,4.8
1979-02-28 15:29:00.540 ,5,0,0.,4.8,0.,4.8,0.,4.8,0.,4.8
1979-02-28 15:29:05.340 ,5,0,0.,4.8,1.,4.8,0.,4.8,0.,4.8
1979-02-28 15:29:10.140 ,5,0,1.,4.8,0.,4.8,0.,4.8,0.,4.8
1979-02-28 15:29:14.940 ,5,0,0.,4.8,0.,4.8,1.,4.8,0.,4.8
1979-02-28 15:29:19.740 ,5,0,0.,4.8,0.,4.8,1.,4.8,0.,4.8
1979-02-28 15:29:24.540 ,6,0,0.,4.8,0.,4.8,0.,4.8,0.,4.8
1979-02-28 15:29:29.340 ,6,0,0.,4.8,0.,4.8,0.,4.8,0.,4.8
1979-02-28 15:29:34.140 ,6,0,0.,4.8,0.,4.8,0.,4.8,0.,4.8
1979-02-28 15:29:38.940 ,6,0,0.,4.8,0.,4.8,0.,4.8,0.,4.8
1979-02-28 15:29:43.740 ,6,0,0.,4.8,0.,4.8,1.,4.8,0.,4.8
1979-02-28 15:29:48.540 ,7,0,0.,4.8,0.,4.8,0.,4.8,0.,4.8
1979-02-28 15:29:53.340 ,7,0,1.,4.8,1.,4.8,0.,4.8,0.,4.8
1979-02-28 15:29:58.140 ,7,0,0.,4.8,0.,4.8,0.,4.8,0.,4.8
1979-02-28 15:30:02.940 ,7,0,0.,4.8,0.,4.8,1.,4.8,0.,4.8
1979-02-28 15:30:07.740 ,7,0,1.,4.8,0.,4.8,0.,4.8,0.,4.8
1979-02-28 15:30:12.540 ,7,0,0.,4.8,0.,4.8,0.,4.8,0.,4.8
1979-02-28 15:30:17.340 ,7,0,1.,4.8,0.,4.8,1.,4.8,0.,4.8
1979-02-28 15:30:22.140 ,7,0,0.,4.8,1.,4.8,0.,4.8,0.,4.8
1979-02-28 15:30:26.940 ,7,0,0.,4.8,0.,4.8,0.,4.8,0.,4.8
1979-02-28 15:30:31.740 ,7,0,0.,4.8,2.,4.8,1.,4.8,0.,4.8
1979-02-28 15:30:36.540 ,6,0,0.,4.8,1.,4.8,0.,4.8,0.,4.8
1979-02-28 15:30:41.340 ,6,0,1.,4.8,0.,4.8,0.,4.8,0.,4.8
1979-02-28 15:30:46.140 ,6,0,0.,4.8,0.,4.8,0.,4.8,0.,4.8
1979-02-28 15:30:50.940 ,6,0,0.,4.8,0.,4.8,0.,4.8,0.,4.8
1979-02-28 15:30:55.740 ,6,0,0.,4.8,0.,4.8,0.,4.8,0.,4.8
1979-02-28 15:31:00.540 ,5,0,0.,4.8,1.,4.8,0.,4.8,0.,4.8
1979-02-28 15:31:05.340 ,5,0,0.,4.8,0.,4.8,0.,4.8,0.,4.8
1979-02-28 15:31:10.140 ,5,0,0.,4.8,0.,4.8,0.,4.8,0.,4.8
1979-02-28 15:31:14.940 ,5,0,0.,4.8,0.,4.8,1.,4.8,0.,4.8
1979-02-28 15:31:19.740 ,5,0,0.,4.8,0.,4.8,0.,4.8,0.,4.8
1979-02-28 15:31:24.540 ,4,0,0.,4.8,0.,4.8,0.,4.8,0.,4.8
1979-02-28 15:31:29.340 ,4,0,0.,4.8,0.,4.8,0.,4.8,0.,4.8
1979-02-28 15:31:34.140 ,4,0,0.,4.8,0.,4.8,0.,4.8,0.,4.8
1979-02-28 15:31:38.940 ,4,0,0.,4.8,0.,4.8,0.,4.8,0.,4.8
1979-02-28 15:31:43.740 ,4,0,0.,4.8,0.,4.8,1.,4.8,0.,4.8
1979-02-28 15:31:48.540 ,3,0,0.,4.8,0.,4.8,0.,4.8,0.,4.8
1979-02-28 15:31:53.340 ,3,0,1.,4.8,1.,4.8,0.,4.8,0.,4.8
1979-02-28 15:31:58.140 ,3,0,0.,4.8,0.,4.8,0.,4.8,0.,4.8
1979-02-28 15:32:02.940 ,3,0,0.,4.8,0.,4.8,0.,4.8,0.,4.8
1979-02-28 15:32:07.740 ,3,0,0.,4.8,0.,4.8,0.,4.8,0.,4.8
1979-02-28 15:32:12.540 ,2,0,1.,4.8,0.,4.8,0.,4.8,0.,4.8
1979-02-28 15:32:17.340 ,2,0,0.,4.8,0.,4.8,0.,4.8,0.,4.8
1979-02-28 15:32:22.140 ,2,0,0.,4.8,0.,4.8,0.,4.8,0.,4.8
1979-02-28 15:32:26.940 ,2,0,0.,4.8,0.,4.8,0.,4.8,0.,4.8
1979-02-28 15:32:31.740 ,2,0,0.,4.8,0.,4.8,1.,4.8,0.,4.8
1979-02-28 15:32:36.540 ,1,0,0.,4.8,0.,4.8,0.,4.8,0.,4.8
1979-02-28 15:32:41.340 ,1,0,2.,4.8,0.,4.8,0.,4.8,0.,4.8
1979-02-28 15:32:46.140 ,1,0,0.,4.8,0.,4.8,0.,4.8,0.,4.8
1979-02-28 15:32:50.940 ,1,0,0.,4.8,0.,4.8,0.,4.8,0.,4.8
1979-02-28 15:32:55.740 ,1,0,0.,4.8,0.,4.8,2.,4.8,0.,4.8
1979-02-28 15:33:00.540 ,0,0,1.,4.8,0.,4.8,1.,4.8,0.,4.8
1979-02-28 15:33:05.340 ,0,0,2.,4.8,0.,4.8,0.,4.8,0.,4.8